Weather History for Spirit of St Louis, MO

Change the Weather History Date:

Saturday, March 16, 2013

  Actual Average Record
Temperature  
Mean Temperature 52 °F -  
Max Temperature 66 °F 52 °F 77 °F (2012)
Min Temperature 39 °F 30 °F 21 °F (1997)
Degree Days  
Heating Degree Days 12    
Growing Degree Days 2 (Base 50)    
Moisture  
Dew Point 38 °F    
Average Humidity 74    
Maximum Humidity 93    
Minimum Humidity 43    
Precipitation  
Precipitation 0.06 in - - ()
Sea Level Pressure  
Sea Level Pressure 29.92 in    
Wind  
Wind Speed 9 mph (North)    
Max Wind Speed 17 mph    
Max Gust Speed 24 mph    
Visibility 6 miles    
Events Rain    
Averages and records for this station are not official NWS values.
T = Trace of Precipitation, MM = Missing Value Source: NWS Daily Summary

Daily Weather History Graph

Daily Weather History Graph

Search for Another Location

Airport:

Trip Planner

Search our weather history database for the weather conditions in past years. The results will help you decide how hot, cold, wet, or windy it might be!

Date:

Astronomy

Mar. 16, 2013 Rise Set
Actual Time 7:11 AM CDT 7:10 PM CDT
Civil Twilight 6:45 AM CDT 7:37 PM CDT
Nautical Twilight 6:14 AM CDT 8:08 PM CDT
Astronomical Twilight 5:43 AM CDT 8:39 PM CDT
Moon 9:45 AM CDT (3/16) No Moon Set
Length of Visible Light 12h 51m
Length of Day
11h 59m
Waxing Crescent, 23% of the Moon is Illuminated
Mar 16
Waxing Crescent
Mar 19
First Quarter
Mar 27
Full
Apr 2
Last Quarter
Apr 10
New

Hourly Weather History & Observations

Time (CDT) Temp. Windchill Dew Point Humidity Pressure Visibility Wind Dir Wind Speed Gust Speed Precip Events Conditions
12:54 AM 46.0 °F - 41.0 °F 83% 29.65 in 10.0 mi Calm Calm - N/A   Clear
1:54 AM 66.0 °F - 43.0 °F 43% 29.63 in 10.0 mi WSW 12.7 mph - N/A   Clear
2:54 AM 64.9 °F - 43.0 °F 45% 29.63 in 10.0 mi WSW 12.7 mph - N/A   Clear
3:54 AM 64.0 °F - 43.0 °F 46% 29.64 in 10.0 mi WSW 11.5 mph - N/A   Clear
4:54 AM 59.0 °F - 43.0 °F 55% 29.68 in 10.0 mi West 9.2 mph - N/A   Clear
5:54 AM 57.0 °F - 46.0 °F 67% 29.72 in 10.0 mi NW 10.4 mph - N/A   Clear
6:54 AM 53.1 °F - 43.0 °F 69% 29.77 in 10.0 mi WNW 6.9 mph - N/A   Scattered Clouds
7:54 AM 50.0 °F - 41.0 °F 71% 29.82 in 6.0 mi NNW 12.7 mph 18.4 mph N/A   Haze
8:37 AM 46.4 °F 40.4 °F 39.2 °F 76% 29.86 in 4.0 mi NW 13.8 mph - N/A   Haze
8:54 AM 46.0 °F 39.0 °F 37.9 °F 73% 29.89 in 4.0 mi North 17.3 mph 23.0 mph N/A   Haze
9:22 AM 42.8 °F 35.1 °F 35.6 °F 76% 29.92 in 2.5 mi NW 16.1 mph 24.2 mph N/A   Haze
9:54 AM 42.1 °F 35.2 °F 36.0 °F 79% 29.94 in 2.5 mi North 12.7 mph - N/A   Haze
10:52 AM 42.8 °F 36.2 °F 35.6 °F 76% 29.94 in 3.0 mi North 12.7 mph - N/A   Haze
10:54 AM 43.0 °F 37.7 °F 35.1 °F 74% 29.95 in 3.0 mi North 9.2 mph - N/A   Haze
11:51 AM 44.6 °F 38.8 °F 35.6 °F 71% 29.96 in 6.0 mi North 11.5 mph 19.6 mph N/A   Haze
11:54 AM 44.1 °F 39.0 °F 35.1 °F 71% 29.97 in 6.0 mi North 9.2 mph - N/A   Haze
12:54 PM 45.0 °F 40.1 °F 35.1 °F 68% 30.01 in 7.0 mi North 9.2 mph - N/A   Overcast
1:54 PM 46.0 °F 41.4 °F 35.1 °F 66% 29.99 in 6.0 mi North 9.2 mph - N/A   Haze
2:54 PM 45.0 °F 40.6 °F 35.1 °F 68% 29.99 in 6.0 mi NNE 8.1 mph - N/A   Haze
3:54 PM 45.0 °F 40.6 °F 35.1 °F 68% 29.98 in 6.0 mi NE 8.1 mph - N/A   Haze
4:54 PM 45.0 °F 41.2 °F 34.0 °F 65% 30.02 in 6.0 mi North 6.9 mph - N/A   Haze
5:54 PM 43.0 °F 38.2 °F 35.1 °F 74% 30.02 in 4.0 mi North 8.1 mph - 0.00 in Rain Light Rain
6:49 PM 41.0 °F 35.2 °F 35.6 °F 81% 30.02 in 4.0 mi NNE 9.2 mph - 0.01 in Rain Light Rain
6:54 PM 41.0 °F 35.8 °F 35.1 °F 79% 30.03 in 4.0 mi NNE 8.1 mph - 0.01 in Rain Light Rain
7:54 PM 39.9 °F 35.8 °F 36.0 °F 86% 30.03 in 4.0 mi ENE 5.8 mph - 0.03 in Rain Light Rain
8:54 PM 39.9 °F 37.8 °F 37.0 °F 89% 30.06 in 4.0 mi NE 3.5 mph - 0.01 in Rain Light Rain
9:41 PM 39.2 °F 35.0 °F 37.4 °F 93% 30.04 in 4.0 mi NE 5.8 mph - 0.01 in Rain Light Rain
9:54 PM 39.9 °F 35.8 °F 37.0 °F 89% 30.06 in 5.0 mi NE 5.8 mph - 0.01 in   Overcast
10:17 PM 39.2 °F 35.0 °F 37.4 °F 93% 30.05 in 5.0 mi ENE 5.8 mph - N/A   Overcast
10:45 PM 39.2 °F 35.9 °F 35.6 °F 87% 30.05 in 6.0 mi ENE 4.6 mph - N/A   Overcast
10:54 PM 39.0 °F 34.8 °F 36.0 °F 89% 30.07 in 6.0 mi NE 5.8 mph - N/A   Overcast
11:09 PM 39.2 °F 33.6 °F 35.6 °F 87% 30.04 in 7.0 mi NE 8.1 mph - N/A   Overcast
11:54 PM 39.9 °F 34.5 °F 35.1 °F 83% 30.06 in 10.0 mi NE 8.1 mph - N/A   Overcast